[[{"header":{"parameterUnit":"m.s-1","parameterCategory":1,"la1":30.2991,"la2":30.254,"lo1":-89.0895,"lo2":-89.0444,"dy":0.0017,"dx":0.0017,"nx":28,"ny":28,"refTime":"2024-08-21T09:00:00:Z","depth":0,"parameterNumber":2,"parameterNumberName":"U-component_of_WINDS"},"data":[0,0,0,0,0,0,0,0,0,0,0,0,0,0,0,0,0,0,0,0,0,0,0,0,0,0,0,0,0,0,0,0,0,0,0,0,0,0,0,0,0,0,0,0,0,0,0,0,0,0,0,0,0,0,0,0,0,0,-1.6358,-1.6357,0,-1.6296,-1.6295,-1.6294,-1.6273,-1.6273,-1.6274,-1.6274,-1.6206,-1.6204,-1.6202,0,0,0,0,0,0,0,0,0,0,0,0,0,-1.6455,-1.6453,-1.6358,-1.6357,-1.6356,-1.6296,-1.6295,-1.6294,-1.6273,-1.6273,-1.6274,-1.6274,-1.6207,-1.6204,-1.6202,0,0,0,0,0,0,0,0,0,0,0,0,0,-1.6405,-1.6453,-1.6358,-1.6339,-1.6336,-1.6296,-1.6295,-1.6294,-1.6273,-1.6273,-1.6274,-1.6274,-1.6207,-1.6204,-1.6201,-1.6174,0,0,-1.6192,-1.6191,0,0,0,0,0,0,0,0,-1.6408,-1.6401,-1.6342,-1.634,-1.6337,-1.6293,-1.6304,-1.6254,-1.6273,-1.6297,-1.6274,-1.6274,-1.6234,-1.6229,-1.6216,-1.6171,-1.6168,-1.6192,-1.619,-1.6189,-1.6188,0,0,0,0,0,0,0,-1.6411,-1.6404,-1.6333,-1.6342,-1.6338,-1.6332,-1.6325,-1.6295,-1.6264,-1.6295,-1.6293,-1.6286,-1.6233,-1.6219,-1.6215,-1.6167,-1.6192,-1.6189,-1.6187,-1.6186,-1.6098,-1.6097,0,0,0,0,0,0,-1.6418,-1.6407,-1.6335,-1.6331,-1.6374,-1.633,-1.6322,-1.6307,-1.6264,-1.6258,-1.6286,-1.6286,-1.6224,-1.6218,-1.6212,-1.6178,-1.6189,-1.6186,-1.6184,-1.6098,-1.6098,-1.6097,0,0,0,0,0,0,-1.6421,-1.6412,-1.6338,-1.6369,-1.6359,-1.6328,-1.631,-1.6305,-1.6292,-1.6258,-1.6252,-1.6278,-1.6224,-1.6216,-1.6184,-1.6176,-1.6184,-1.6181,-1.6099,-1.6098,-1.6098,-1.611,0,0,0,0,0,0,-1.6424,-1.6413,-1.6403,-1.6369,-1.6357,-1.6312,-1.631,-1.6304,-1.6287,-1.6286,-1.6249,-1.6243,-1.6224,-1.6189,-1.6181,-1.6172,-1.6179,-1.61,-1.6099,-1.6098,-1.611,-1.611,-1.611,0,0,0,0,0,-1.6427,-1.6408,-1.6403,-1.6394,-1.6344,-1.6312,-1.6305,-1.6285,-1.6286,-1.6276,-1.6254,-1.6244,-1.6178,-1.6186,-1.6177,-1.6166,-1.61,-1.6099,-1.6098,-1.6111,-1.611,-1.611,0,0,0,0,0,0,-1.6441,-1.6403,-1.6397,-1.6367,-1.6343,-1.6308,-1.6294,-1.6285,-1.6259,-1.6259,-1.6234,-1.6226,-1.6196,-1.6178,-1.6187,-1.6138,-1.6138,-1.6136,-1.6151,-1.615,-1.615,-1.6155,-1.6176,0,0,0,0,0,-1.6441,-1.6418,-1.6386,-1.6362,-1.6351,-1.6325,-1.631,-1.6297,-1.627,-1.626,-1.6236,-1.6209,-1.6183,-1.6166,-1.6139,-1.6108,-1.61,-1.6096,-1.6096,-1.6096,-1.6093,-1.6076,-1.6074,-1.6094,-1.6094,-1.6094,0,0,-1.6439,-1.6416,-1.6403,-1.6365,-1.6345,-1.6321,-1.6316,-1.6291,-1.6274,-1.6255,-1.6224,-1.6206,-1.6175,-1.6144,-1.6129,-1.6128,-1.6086,-1.6094,-1.6094,-1.6092,-1.6075,-1.6073,-1.6071,-1.6093,-1.6093,-1.6093,0,0,-1.6425,-1.6405,-1.6384,-1.6365,-1.6335,-1.6318,-1.6313,-1.628,-1.6268,-1.6237,-1.6223,-1.6201,-1.6155,-1.6134,-1.6117,-1.6097,-1.6087,-1.6089,-1.6086,-1.607,-1.6068,-1.6067,-1.606,-1.6058,-1.6087,-1.6087,-1.6087,0,-1.6427,-1.6392,-1.6373,-1.635,-1.6334,-1.6318,-1.6296,-1.6277,-1.624,-1.6228,-1.6228,-1.6172,-1.615,-1.6114,-1.6109,-1.6096,-1.6089,-1.6093,-1.607,-1.6069,-1.6067,-1.606,-1.6057,-1.6087,-1.6087,-1.6087,-1.6087,0,-1.6396,-1.6372,-1.6358,-1.6325,-1.6307,-1.6284,-1.6261,-1.6245,-1.6234,-1.6216,-1.6185,-1.6158,-1.6127,-1.6117,-1.6105,-1.6079,-1.608,-1.6076,-1.6075,-1.6066,-1.6059,-1.6056,-1.6088,-1.6088,-1.6087,-1.6087,0,0,-1.6387,-1.6345,-1.634,-1.6326,-1.6293,-1.6273,-1.625,-1.6221,-1.6207,-1.6182,-1.6162,-1.6125,-1.6121,-1.6102,-1.6087,-1.6073,-1.6059,-1.607,-1.6069,-1.6069,-1.6029,-1.6033,-1.603,-1.6053,-1.6052,-1.6052,-1.6032,0,-1.6369,-1.6328,-1.6311,-1.6277,-1.6255,-1.6241,-1.622,-1.6197,-1.6181,-1.6159,-1.614,-1.6115,-1.6111,-1.61,-1.6085,-1.6064,-1.6051,-1.6065,-1.6032,-1.6031,-1.6041,-1.6026,-1.603,-1.6013,-1.6029,-1.6029,-1.6028,0,-1.6342,-1.6319,-1.6284,-1.6254,-1.6244,-1.6227,-1.6199,-1.6178,-1.6152,-1.6141,-1.6121,-1.6108,-1.6082,-1.6084,-1.6048,-1.6058,-1.6044,-1.6032,-1.6031,-1.6026,-1.6029,-1.6022,-1.6007,-1.6004,-1.6024,-1.6024,-1.6024,0,-1.6339,-1.6299,-1.6273,-1.6261,-1.6226,-1.6214,-1.6199,-1.6173,-1.6157,-1.6132,-1.6122,-1.6094,-1.6079,-1.6057,-1.6037,-1.604,-1.6003,-1.6003,-1.5992,-1.5993,-1.5984,-1.5985,-1.5967,-1.5976,-1.5976,-1.5976,-1.5976,0,-1.632,-1.6299,-1.6272,-1.6256,-1.6232,-1.6213,-1.6189,-1.6173,-1.615,-1.613,-1.6115,-1.6097,-1.6071,-1.6049,-1.6033,-1.6005,-1.5998,-1.5988,-1.5984,-1.599,-1.5991,-1.5979,-1.598,-1.5975,-1.5975,-1.5975,-1.5976,0,-1.6313,-1.6294,-1.6265,-1.6236,-1.6228,-1.6211,-1.6185,-1.6169,-1.6152,-1.6127,-1.612,-1.6094,-1.6067,-1.6045,-1.6009,-1.5998,-1.597,-1.5965,-1.5979,-1.5977,-1.5968,-1.5969,-1.5941,-1.5937,-1.5949,-1.5949,-1.5949,0,-1.6302,-1.6286,-1.6256,-1.6242,-1.6227,-1.6205,-1.6189,-1.617,-1.6154,-1.6123,-1.6111,-1.6083,-1.606,-1.6018,-1.5995,-1.5968,-1.5962,-1.5954,-1.5958,-1.5964,-1.5962,-1.5963,-1.5962,-1.5954,-1.5954,-1.5954,-1.5954,0,-1.6285,-1.6277,-1.6256,-1.6231,-1.6213,-1.6192,-1.6171,-1.616,-1.6137,-1.6119,-1.6093,-1.6075,-1.604,-1.6013,-1.5984,-1.5966,-1.5956,-1.5953,-1.5949,-1.5954,-1.5963,-1.5959,-1.5978,-1.5954,-1.5954,-1.5954,-1.5954,-1.5954,-1.6276,-1.6261,-1.6238,-1.6214,-1.6197,-1.6178,-1.6161,-1.6144,-1.6122,-1.6093,-1.6082,-1.6055,-1.603,-1.599,-1.5973,-1.5951,-1.5949,-1.5944,-1.5942,-1.5941,-1.5942,-1.5968,-1.5945,-1.5945,-1.5945,-1.5945,-1.5945,0,-1.6258,-1.6243,-1.6222,-1.6193,-1.6175,-1.6169,-1.6145,-1.613,-1.6107,-1.6085,-1.6063,-1.6033,-1.6007,-1.5983,-1.5956,-1.5943,-1.5937,-1.5936,-1.5937,-1.5933,-1.5945,-1.5951,-1.5941,-1.5941,-1.5941,-1.5941,-1.5941,-1.5941,-1.6246,-1.6222,-1.6211,-1.6177,-1.6162,-1.6136,-1.6123,-1.6106,-1.6088,-1.6056,-1.6035,-1.602,-1.5997,-1.5968,-1.5944,-1.5937,-1.5928,-1.5928,-1.592,-1.5931,-1.5932,-1.5933,-1.5938,-1.5926,-1.5926,-1.591,-1.591,-1.591]},{"header":{"parameterUnit":"m.s-1","parameterCategory":1,"la1":30.2991,"la2":30.254,"lo1":-89.0895,"lo2":-89.0444,"dy":0.0017,"dx":0.0017,"nx":28,"ny":28,"refTime":"2024-08-21T09:00:00:Z","depth":0,"parameterNumber":3,"parameterNumberName":"V-component_of_WINDS"},"data":[0,0,0,0,0,0,0,0,0,0,0,0,0,0,0,0,0,0,0,0,0,0,0,0,0,0,0,0,0,0,0,0,0,0,0,0,0,0,0,0,0,0,0,0,0,0,0,0,0,0,0,0,0,0,0,0,0,0,0.8279,0.8277,0,0.8043,0.804,0.8037,0.789,0.789,0.7889,0.7888,0.7637,0.7631,0.7625,0,0,0,0,0,0,0,0,0,0,0,0,0,0.8594,0.8589,0.8279,0.8276,0.8273,0.8043,0.804,0.8036,0.789,0.789,0.7889,0.7888,0.7639,0.7632,0.7624,0,0,0,0,0,0,0,0,0,0,0,0,0,0.8417,0.8587,0.828,0.8173,0.8161,0.8044,0.804,0.8036,0.7891,0.789,0.7888,0.7887,0.7641,0.7632,0.7623,0.7591,0,0,0.7596,0.7592,0,0,0,0,0,0,0,0,0.8427,0.8406,0.8192,0.818,0.8167,0.7995,0.8058,0.7886,0.7891,0.7993,0.7888,0.7887,0.7756,0.7738,0.7695,0.7579,0.7568,0.7595,0.759,0.7586,0.7583,0,0,0,0,0,0,0,0.844,0.8415,0.8185,0.8189,0.8173,0.8133,0.8107,0.8025,0.7884,0.7984,0.7973,0.7947,0.7749,0.7705,0.7688,0.7565,0.7595,0.7587,0.7582,0.7578,0.7405,0.7406,0,0,0,0,0,0,0.847,0.8426,0.8193,0.8178,0.8297,0.8129,0.8099,0.8051,0.7884,0.7858,0.7949,0.7941,0.772,0.7699,0.7679,0.7627,0.7586,0.7577,0.7572,0.7404,0.7405,0.7406,0,0,0,0,0,0,0.8478,0.8451,0.8202,0.8299,0.8264,0.8125,0.8072,0.8047,0.8002,0.7858,0.7831,0.793,0.7719,0.7692,0.7613,0.7616,0.7573,0.7565,0.7403,0.7404,0.7405,0.7525,0,0,0,0,0,0,0.8487,0.8455,0.8443,0.83,0.826,0.8144,0.8072,0.8043,0.7988,0.7977,0.7833,0.7808,0.7716,0.7628,0.7605,0.7603,0.7558,0.7402,0.7404,0.7405,0.752,0.753,0.7538,0,0,0,0,0,0.8499,0.8485,0.8444,0.8416,0.8244,0.8145,0.8121,0.8019,0.799,0.7975,0.7881,0.7812,0.7621,0.7621,0.7594,0.7589,0.7401,0.7403,0.7405,0.7516,0.7528,0.7538,0,0,0,0,0,0,0.8629,0.8464,0.8417,0.8357,0.8266,0.8121,0.8099,0.8035,0.7949,0.7941,0.7815,0.7783,0.7717,0.7645,0.7649,0.7547,0.7503,0.7499,0.7596,0.7606,0.7616,0.7633,0.7551,0,0,0,0,0,0.8652,0.8589,0.8447,0.8407,0.8365,0.8241,0.8194,0.8122,0.8022,0.7982,0.7883,0.7786,0.7703,0.7651,0.7567,0.7509,0.7473,0.7493,0.7502,0.751,0.7508,0.7468,0.7473,0.7412,0.7412,0.7411,0,0,0.8696,0.8598,0.8566,0.8431,0.8353,0.8286,0.8209,0.8143,0.8091,0.7971,0.7891,0.7815,0.7698,0.7629,0.7594,0.7567,0.7517,0.7513,0.752,0.7512,0.747,0.7476,0.7481,0.7413,0.7413,0.7412,0,0,0.8742,0.8664,0.8621,0.8544,0.8428,0.8345,0.8335,0.8198,0.8144,0.8062,0.797,0.7905,0.7767,0.7686,0.7627,0.7642,0.7573,0.7618,0.7665,0.7627,0.7632,0.7636,0.7637,0.764,0.7616,0.7616,0.7616,0,0.8811,0.8711,0.8606,0.8545,0.8486,0.8378,0.8331,0.826,0.8121,0.8082,0.8055,0.7877,0.7791,0.77,0.7704,0.7661,0.7642,0.7632,0.7641,0.7643,0.7645,0.7645,0.7646,0.7622,0.7622,0.7621,0.762,0,0.8799,0.8731,0.871,0.8581,0.852,0.8467,0.835,0.83,0.8234,0.8153,0.8069,0.7962,0.7853,0.7827,0.7761,0.7725,0.7712,0.7666,0.7617,0.7658,0.7656,0.7655,0.7631,0.7629,0.7627,0.7625,0,0,0.892,0.8734,0.8727,0.8666,0.8529,0.8472,0.8412,0.8308,0.8266,0.8174,0.8117,0.8002,0.7957,0.789,0.7814,0.7782,0.7796,0.7737,0.7732,0.7749,0.7745,0.7779,0.7782,0.7751,0.7751,0.775,0.7754,0,0.8943,0.8833,0.8736,0.8659,0.8592,0.8488,0.8435,0.8343,0.8265,0.8194,0.8107,0.8026,0.7975,0.7933,0.7897,0.7802,0.7793,0.7801,0.7692,0.769,0.7722,0.7781,0.7817,0.7826,0.7753,0.7752,0.7752,0,0.8955,0.8869,0.8787,0.8655,0.8623,0.8577,0.8473,0.8408,0.83,0.8245,0.8171,0.8092,0.8019,0.7981,0.7877,0.7884,0.7834,0.7781,0.7778,0.7761,0.7722,0.7762,0.7826,0.7827,0.775,0.7751,0.7751,0,0.9047,0.8911,0.8843,0.8794,0.8639,0.8608,0.8542,0.8433,0.8376,0.8284,0.8245,0.8145,0.8089,0.8012,0.7906,0.7889,0.7811,0.7765,0.776,0.7763,0.7746,0.7748,0.78,0.772,0.772,0.772,0.772,0,0.9081,0.9034,0.8882,0.884,0.8782,0.867,0.8615,0.8539,0.8443,0.8381,0.8285,0.8228,0.8093,0.8019,0.7936,0.786,0.7836,0.7787,0.7765,0.7794,0.78,0.7757,0.7752,0.772,0.772,0.772,0.772,0,0.9173,0.907,0.8988,0.8849,0.8812,0.8776,0.8654,0.8607,0.8525,0.8447,0.8423,0.8292,0.82,0.8087,0.7958,0.7902,0.7833,0.7801,0.787,0.7857,0.7856,0.7857,0.788,0.7875,0.7803,0.7804,0.7805,0,0.92,0.9161,0.9018,0.8971,0.8908,0.8834,0.8776,0.8663,0.8605,0.8479,0.8446,0.8348,0.8262,0.8119,0.801,0.791,0.7873,0.7888,0.7857,0.7887,0.7869,0.7872,0.7865,0.7896,0.7897,0.7898,0.7899,0,0.9258,0.9208,0.913,0.9033,0.8967,0.8885,0.8798,0.8764,0.8633,0.8572,0.8479,0.8413,0.8282,0.8183,0.807,0.7996,0.7924,0.791,0.7903,0.793,0.7971,0.7945,0.7889,0.7909,0.7908,0.7907,0.7907,0.7907,0.9314,0.9274,0.9167,0.9082,0.9005,0.8926,0.8875,0.8787,0.8707,0.8594,0.8531,0.8438,0.8328,0.8168,0.8097,0.802,0.7994,0.7985,0.7982,0.798,0.7988,0.7987,0.7999,0.7999,0.7998,0.7998,0.7998,0,0.9364,0.929,0.9213,0.9096,0.9028,0.8971,0.8871,0.8817,0.8737,0.8642,0.8561,0.8451,0.8355,0.8239,0.8134,0.8094,0.8058,0.807,0.807,0.8053,0.8018,0.8034,0.8101,0.8101,0.8101,0.8101,0.8101,0.8101,0.9382,0.931,0.9248,0.9135,0.906,0.8971,0.8918,0.8843,0.8766,0.865,0.857,0.8497,0.8391,0.8278,0.8186,0.8154,0.8118,0.8139,0.8097,0.8065,0.8056,0.8048,0.8061,0.8133,0.8133,0.8137,0.8137,0.8138]}]]